TimeMDT,TemperatureF,Dew PointF,Humidity,Sea Level PressureIn,VisibilityMPH,Wind Direction,Wind SpeedMPH,Gust SpeedMPH,PrecipitationIn,Events,Conditions,WindDirDegrees,DateUTC
12:53 AM,71.1,63.0,75,29.87,10.0,Calm,Calm,-,N/A,,Scattered Clouds,0,2013-09-06 06:53:00
1:53 AM,78.1,63.0,60,29.87,10.0,North,15.0,25.3,N/A,,Clear,10,2013-09-06 07:53:00
2:53 AM,73.0,63.0,71,29.84,10.0,East,6.9,-,N/A,,Clear,80,2013-09-06 08:53:00
3:53 AM,72.0,63.0,73,29.88,10.0,ESE,3.5,-,N/A,Thunderstorm,Partly Cloudy,120,2013-09-06 09:53:00
4:17 AM,75.2,62.6,65,29.99,6.0,SW,15.0,28.8,0.01,Rain-Thunderstorm,Light Thunderstorms and Rain,220,2013-09-06 10:17:00
4:31 AM,69.8,64.4,83,29.97,2.5,West,12.7,21.9,0.13,Rain-Thunderstorm,Heavy Thunderstorms and Rain,280,2013-09-06 10:31:00
4:42 AM,69.8,66.2,88,29.97,5.0,WNW,9.2,-,0.15,Rain-Thunderstorm,Light Thunderstorms and Rain,290,2013-09-06 10:42:00
4:53 AM,70.0,66.0,87,29.91,7.0,WSW,6.9,-,0.15,Rain-Thunderstorm,Light Rain,240,2013-09-06 10:53:00
5:35 AM,68.0,66.2,94,29.92,6.0,ESE,5.8,-,0.04,Rain,Light Rain,120,2013-09-06 11:35:00
5:43 AM,69.8,66.2,88,29.92,7.0,East,6.9,-,0.05,Rain-Thunderstorm,Light Rain,100,2013-09-06 11:43:00
5:53 AM,68.0,66.0,93,29.86,8.0,NE,13.8,-,0.06,Rain-Thunderstorm,Light Rain,50,2013-09-06 11:53:00
6:09 AM,68.0,66.2,94,29.90,8.0,NNE,16.1,20.7,0.01,Rain,Light Rain,30,2013-09-06 12:09:00
6:53 AM,69.1,66.0,90,29.89,10.0,Calm,Calm,-,0.01,,Partly Cloudy,0,2013-09-06 12:53:00
8:53 AM,73.0,66.9,81,29.94,10.0,SW,3.5,-,N/A,,Clear,220,2013-09-06 14:53:00
9:53 AM,77.0,66.0,69,29.95,10.0,West,6.9,-,N/A,,Clear,260,2013-09-06 15:53:00
10:53 AM,79.0,66.9,66,29.95,10.0,West,6.9,-,N/A,,Clear,260,2013-09-06 16:53:00
11:53 AM,82.0,66.9,60,29.94,10.0,SW,9.2,-,N/A,,Clear,220,2013-09-06 17:53:00
12:53 PM,86.0,64.9,49,29.93,10.0,SSW,8.1,-,N/A,,Clear,210,2013-09-06 18:53:00
1:53 PM,87.1,64.0,46,29.91,10.0,SSW,5.8,-,N/A,,Clear,200,2013-09-06 19:53:00
2:53 PM,89.1,64.9,45,29.90,10.0,SW,9.2,-,N/A,,Clear,230,2013-09-06 20:53:00
3:53 PM,90.0,64.9,43,29.89,10.0,SW,8.1,-,N/A,,Clear,230,2013-09-06 21:53:00
4:53 PM,90.0,64.9,43,29.87,10.0,SW,5.8,-,N/A,,Clear,230,2013-09-06 22:53:00
5:53 PM,89.1,66.0,46,29.87,10.0,SE,3.5,-,N/A,,Scattered Clouds,130,2013-09-06 23:53:00
6:53 PM,84.0,68.0,58,29.88,10.0,Calm,Calm,-,N/A,,Clear,0,2013-09-07 00:53:00
7:53 PM,79.0,69.1,72,29.91,10.0,NNW,4.6,-,N/A,,Clear,330,2013-09-07 01:53:00
8:19 PM,82.4,62.6,51,29.95,10.0,NE,11.5,-,N/A,,Clear,40,2013-09-07 02:19:00
8:53 PM,80.1,63.0,56,29.94,10.0,NE,8.1,-,N/A,,Clear,50,2013-09-07 02:53:00
9:53 PM,77.0,63.0,62,29.94,10.0,ENE,6.9,-,N/A,,Clear,60,2013-09-07 03:53:00
10:53 PM,75.0,64.0,69,29.95,10.0,ENE,5.8,-,N/A,,Clear,60,2013-09-07 04:53:00
11:53 PM,73.9,64.9,73,29.94,10.0,ENE,8.1,-,N/A,,Clear,60,2013-09-07 05:53:00